DW3795 Weather Reports


time (UTC)temp
C
wind
direction
speed
KPH
gust
KPH
rain 1hr
cm
rain 24hr
cm
rain mn
cm
humidity
%
barometer
mb
20260502194528 16 158 1.6 8.0 0.00 0.00 0.00 48 1012.3
20260502193022 15 339 1.6 4.8 0.00 0.00 0.00 49 1012.3
20260502191519 15 354 0.0 3.2 0.00 0.00 0.00 50 1012.6
20260502190020 15 351 1.6 3.2 0.00 0.00 0.00 53 1012.7
20260502184515 15 352 0.0 3.2 0.00 0.00 0.00 54 1012.8
20260502183013 14 350 0.0 3.2 0.00 0.00 0.00 56 1012.9
20260502181513 14 350 1.6 4.8 0.00 0.00 0.00 54 1012.9
20260502163110 12 326 0.0 3.2 0.00 0.00 0.00 62 1014.4
20260502161619 12 327 1.6 4.8 0.00 0.00 0.00 60 1014.7
20260502151549 12 341 1.6 4.8 0.00 0.00 0.00 63 1014.5
20260502123035 11 289 0.0 0.0 0.00 0.00 0.00 75 1014.0
20260502121528 11 289 0.0 0.0 0.00 0.00 0.00 74 1014.0
20260502114524 11 10 0.0 1.6 0.00 0.00 0.00 71 1013.8
20260502113029 11 289 0.0 0.0 0.00 0.00 0.00 71 1013.7
20260502111520 11 289 0.0 1.6 0.00 0.00 0.00 72 1013.5
20260502110021 11 289 0.0 1.6 0.00 0.00 0.00 73 1013.4
20260502104519 11 289 0.0 3.2 0.00 0.00 0.00 71 1013.6
20260502103015 11 267 0.0 3.2 0.00 0.00 0.00 72 1013.6
20260502101515 11 256 1.6 9.7 0.00 0.00 0.00 74 1013.6
20260502091508 10 341 1.6 6.4 0.00 0.00 0.00 89 1013.2
20260502070112 10 187 0.0 1.6 0.00 0.00 0.00 89 1012.5
20260502064558 10 187 1.6 3.2 0.00 0.00 0.00 89 1012.6
20260502063059 10 187 0.0 3.2 0.00 0.00 0.00 89 1012.6
20260502061556 10 187 0.0 1.6 0.00 0.00 0.00 88 1012.7
20260502060055 10 187 0.0 1.6 0.00 0.00 0.00 88 1012.9
20260502054554 10 187 0.0 3.2 0.00 0.00 0.00 88 1012.8
20260502053056 10 187 0.0 0.0 0.00 0.00 0.00 87 1012.8
20260502051600 10 10 0.0 4.8 0.00 0.00 0.00 87 1012.9
20260502050050 10 187 0.0 3.2 0.00 0.00 0.00 86 1013.2
20260502044549 10 186 0.0 3.2 0.00 0.00 0.00 85 1013.0
20260502043047 11 187 0.0 0.0 0.00 0.00 0.00 84 1012.9
20260502041542 11 186 0.0 0.0 0.00 0.00 0.00 83 1012.7
20260502040039 11 186 0.0 1.6 0.00 0.00 0.00 82 1013.0
20260502034539 12 186 0.0 1.6 0.00 0.00 0.00 81 1013.1
20260502033038 12 186 0.0 3.2 0.00 0.00 0.00 80 1013.1
20260502031538 12 186 0.0 3.2 0.00 0.00 0.00 79 1012.9
20260502030044 12 185 0.0 4.8 0.00 0.00 0.00 79 1012.9
20260502024537 12 194 0.0 6.4 0.00 0.00 0.00 78 1012.9
20260502023037 13 200 0.0 6.4 0.00 0.00 0.00 77 1012.8
20260502021536 13 10 0.0 9.7 0.00 0.00 0.00 76 1012.7
20260502020036 13 223 1.6 12.9 0.00 0.00 0.00 74 1012.6
20260502014537 13 192 0.0 11.3 0.00 0.00 0.00 73 1012.6
20260502013034 14 215 1.6 12.9 0.00 0.00 0.00 71 1012.6
20260502011535 14 154 4.8 14.5 0.00 0.00 0.00 70 1012.6
20260502010034 15 136 1.6 16.1 0.00 0.00 0.00 69 1012.0
20260502004533 15 228 3.2 11.3 0.00 0.00 0.00 68 1011.8
20260502003032 15 178 3.2 12.9 0.00 0.00 0.00 67 1011.7
20260502001539 16 137 4.8 9.7 0.00 0.00 0.00 65 1011.2
20260502000031 16 321 4.8 9.7 0.00 0.00 0.00 62 1011.0
20260501234536 17 188 3.2 12.9 0.00 0.00 0.00 61 1011.0
20260501233034 17 145 0.0 12.9 0.00 0.00 0.00 58 1011.1
20260501231530 18 190 3.2 11.3 0.00 0.00 0.00 55 1011.0
20260501230034 18 96 4.8 16.1 0.00 0.00 0.00 54 1011.0
20260501224530 18 208 6.4 16.1 0.00 0.00 0.00 52 1010.9
20260501223027 19 181 3.2 12.9 0.00 0.00 0.00 51 1011.2
20260501221526 20 147 1.6 9.7 0.00 0.00 0.00 50 1011.2
20260501220025 20 183 3.2 16.1 0.00 0.00 0.00 49 1011.2
20260501214537 20 176 1.6 8.0 0.00 0.00 0.00 49 1011.3
20260501213023 20 195 1.6 17.7 0.00 0.00 0.00 48 1011.4
20260501211522 21 221 6.4 11.3 0.00 0.00 0.00 46 1011.5
20260501210022 21 80 1.6 17.7 0.00 0.00 0.00 46 1011.5
20260501204520 21 248 3.2 9.7 0.00 0.00 0.00 44 1011.9
20260501203019 21 211 6.4 16.1 0.00 0.00 0.00 43 1011.8
20260501201517 21 223 4.8 14.5 0.00 0.00 0.00 42 1012.2
20260501200015 21 87 3.2 12.9 0.00 0.00 0.00 43 1012.3